User: anonymous   Login
Location: Unspecified
(0.0000°N, 0.0000°E)
Time: 22:21:12
(UTC+00:00)
Language:

JUGNU - Orbit

View from above orbital plane
View from above orbital plane
View from above satellite
View from above satellite

Ground track
Ground track

The orbit data is extracted from the following two-line orbital elements,

1 37839U 11058B   23083.25059867  .00001265  00000-0  52817-3 0  9993
2 37839  19.9609 278.2473 0018860   2.2836 153.9447 14.12916339591864
Epoch (UTC): 24 March 2023 06:00:51
Eccentricity: 0.0018860
inclination: 19.9609°
perigee height: 836 km
apogee height: 863 km
right ascension of ascending node: 278.2473°
argument of perigee: 2.2836°
revolutions per day: 14.12916339
mean anomaly at epoch: 153.9447°
orbit number at epoch: 59186

The dashed part of the orbit path shows where the satellite is in the earth's shadow,  

DLR